Flag for Equatorial Guinea Weather past 2 weeks in Bata, Equatorial Guinea

73 °F

Passing clouds.

Feels Like: 68 °F
Forecast: 77 / 82 °F
Wind: 2 mph from East

Location: Libreville Airport

Current Time: Oct 10, 2015 at 6:30:11 AM

Latest Report: Oct 10, 2015 at 5:57 AM

Visibility: 3 mi

Pressure: 29.92 "Hg

Humidity: 100%

Dew point: 73 °F

Location of BataLocation

Historic Weather in Bata — Graph


Bata temperature yesterday

Maximum temperature yesterday: 82 °F (at 2:00 PM)
Minimum temperature yesterday: 75 °F (at 4:52 AM)
Average temperature yesterday: 77 °F

Past Weeks' High & Low Weather Summary

High84 °F (Sep 25, 12:00 PM)100% (Oct 1, 7:00 AM)30.01 "Hg (Oct 1, 7:00 AM)
Low73 °F (Oct 10, 1:00 AM)70% (Sep 25, 12:00 PM)29.77 "Hg (Oct 2, 4:00 PM)
Average80 °F85%29.90 "Hg
* Reported Sep 25 5:00 AM — Oct 10 5:00 AM, Bata, Weather by CustomWeather, © 2015

Note: Actual official high and low records may vary slightly from our data, if they occured in-between our weather recording intervals... More about our weather records


Bata weather history for previous 24 hours

Time TempWeatherWind HumidityBarometerVisibility
5:00 AM
Sat, Oct 10
73 °FLight rain. Low clouds.2 mph100%29.92 "Hg5 mi
4:00 AM73 °FMostly cloudy.7 mph100%29.92 "Hg5 mi
3:00 AM73 °FLight rain. Passing clouds.7 mph100%29.92 "Hg4 mi
2:00 AM73 °FPassing clouds.6 mph100%29.92 "HgN/A
1:00 AM73 °FPartly cloudy.6 mph100%29.92 "HgN/A
12:00 AM75 °FPartly cloudy.6 mph94%29.92 "HgN/A
11:00 PM
Fri, Oct 9
79 °FPassing clouds.5 mph84%29.89 "HgN/A
10:00 PM77 °FPassing clouds.8 mph89%29.89 "HgN/A
9:00 PM77 °FPassing clouds.6 mph89%29.89 "HgN/A
8:53 PM77 °FPassing clouds.6 mph89%29.89 "HgN/A
8:00 PM75 °FThunderstorms. Passing clouds.8 mph94%29.89 "Hg5 mi
7:00 PM75 °FThunderstorms. Mostly cloudy.6 mph94%29.92 "Hg3 mi
6:51 PM75 °FThunderstorms. Mostly cloudy.6 mph94%29.92 "Hg3 mi
6:00 PM75 °FStrong thunderstorms. Mostly cloudy.6 mph94%29.92 "Hg1 mi
5:00 PM77 °FLight rain. Broken clouds.8 mph94%29.89 "Hg2 mi
4:52 PM77 °FLight rain. Broken clouds.7 mph94%29.89 "Hg2 mi
4:00 PM81 °FBroken clouds.6 mph84%29.86 "Hg5 mi
3:00 PM79 °FPartly sunny.10 mph89%29.86 "Hg5 mi
2:00 PM82 °FScattered clouds.8 mph79%29.89 "Hg6 mi
1:00 PM81 °FLight rain. Broken clouds.5 mph84%29.95 "Hg5 mi
12:00 PM81 °FBroken clouds.5 mph84%29.98 "HgN/A
11:00 AM81 °FBroken clouds.1 mph84%29.98 "HgN/A
10:00 AM77 °FBroken clouds.7 mph94%30.01 "Hg5 mi
9:00 AM77 °FLight rain. More clouds than sun.6 mph94%30.01 "Hg2 mi
8:47 AM77 °FLight rain. More clouds than sun.5 mph94%30.01 "Hg2 mi
8:00 AM75 °FLight rain. More clouds than sun.6 mph100%29.98 "Hg4 mi
7:00 AM75 °FLight rain. Broken clouds.9 mph100%29.95 "Hg3 mi
6:00 AM75 °FLight rain. Partly cloudy.6 mph100%29.92 "Hg3 mi
Weather by CustomWeather, © 2015

See weather overviewHow to use our weather pages